Find STARLINK-37423

NORAD ID: 68852 Int'l Des: 2026-094P Owner: starlink Country: USA Constellation: starlink operational
LEOCIRCULARRETROGRADE

Live-Position

3D-Globus wird geladen...

Über STARLINK-37423

Beschreibung wird geladen...

Nächste Überflüge

Passes for default location (London). Set your location on the main map for personalized predictions.

Höhenverlauf

Loading altitude history...

Zweizeiliger Elementsatz

1 68852U 26094P 26120.66670139 -.01715427 96230-3 -23568-2 0 9997
2 68852 97.2833 134.1630 0001347 85.4640 131.8052 16.06301001 1721
Epoch: 30. Apr. 2026 • Age: 32 hours

Aktueller Status

Höhe 293.5 km
Geschwindigkeit 7.73 km/s
Subsatellitenpunkt -66.96°S, 63.18°W
Typ internet

Most Searched